SCP
0 0 0 0 0 0 0 0 0 0 0 0 0 0 0 0 0 0 0 0 0 0 0 0 0 0 0 0 0 0 0 0 0 0 0 0 0 0 0 0 0 0 0 0
0 0 0 0 0 0 0 0 0 0 0 0 0 0 0 0 0 0 0 0 0 0 0 0 0 0 0 0 0 0 0 0 0 0 0 0 0 0 0 0 0 0 0 0
0 0 0 0 0 0 0 0 0 0 0 0 0 0 0 0 0 0 0 0 0 0 0 0 0 0 0 0 0 0 0 0 0 0 0 0 0 0 0 0 0 0 0 0
-0 -0 -0 0 0 0 0 0 0 0 0 0 0 0 0 0 0 0 0 0 0 0 0 0 0 0 0 0 0 0 0 0 0 0 0 0 0 0 0 0 0 0 0 0
-0 -0 -0 0 0 0 0 0 0 0 0 0 0 0 0 0 -0 -0 0 0 0 0 0 0 0 0 0 0 0 0 0 0 0 0 0 0 0 0 0 0 0 0 0 0
-0 -0 -0 0 0 0 0 0 0 0 0 0 0 0 0 0 -0 -0 -0 0 0 0 0 0 0 0 0 0 0 0 0 0 0 0 0 0 0 0 0 0 0 0 0 0
0 -0 0 0 0 0 0 0 -0 0 0 0 0 0 0 -0 0 0 0 0 0 0 0 0 0 0 0 0 0 0 0 0 0 0 0 0 0 0 0 0 0 0 0 0
-0 -0 0 0 0 0 0 0 0 0 0 0 0 0 0 0 0 0 0 0 0 0 0 0 0 0 0 0 0 0 0 0 0 0 0 0 0 0 0 0 0 0 0 0
0 0 0 0 0 0 0 0 0 0 0 0 0 0 0 0 0 0 0 0 0 0 0 0 0 0 0 0 0 0 0 0 0 0 0 0 0 0 0 0 0 0 0 0
0 0 0 0 0 0 0 0 0 -0 0 0 0 0 0 0 0 0 0 0 0 0 0 0 0 0 0 0 0 0 0 0 0 0 0 0 0 0 0 0 0 0 0 0
0 0 0 0 0 0 0 0 -0 -0 0 0 0 0 0 0 0 0 0 0 0 0 0 0 0 0 0 0 0 0 0 0 0 0 0 0 0 0 0 0 0 0 0 0
0 0 0 0 0 0 -0 -0 -0 -0 0 0 0 0 0 -0 -0 0 0 0 0 0 0 0 0 0 0 0 0 0 0 0 0 0 0 0 0 0 0 0 0 0 0 0
0 0 0 0 0 0 0 0 -0 -0 -0 -0 0 0 -0 -0 -0 -0 -0 -0 -0 0 0 0 0 0 0 0 0 0 0 0 0 0 0 0 0 0 0 0 0 0 0 0
0 0 0 0 0 0 0 0 0 0 -0 -0 0 0 0 -0 -0 -0 -0 -0 -0 -0 -0 0 0 0 0 0 0 0 0 0 0 0 0 0 0 0 0 0 0 0 0 0
0 0 0 0 0 0 0 0 0 0 0 -0 0 0 0 -0 -0 -0 -0 -0 -0 -0 0 0 0 0 0 0 0 0 0 0 0 0 0 0 0 0 0 0 0 0 0 0
0 0 0 0 0 0 0 0 0 0 0 0 0 0 0 0 -0 -0 -0 -0 -0 -0 -0 0 0 0 0 0 0 0 0 0 0 0 0 0 0 0 0 0 0 0 0 0
0 0 0 0 0 0 0 0 0 0 0 -0 0 0 0 0 -0 -0 -0 -0 0 -0 -0 -0 -0 -0 0 0 0 0 0 0 0 0 0 0 0 0 0 0 0 0 0 0
0 0 0 0 0 0 0 0 0 0 0 0 -0 -0 -0 -0 -0 -0 -0 -0 -0 0 0 0 -0 -0 -0 0 0 0 0 0 0 0 0 0 0 0 0 0 0 0 0 0
0 0 0 0 0 0 0 0 0 0 0 0 0 -0 0 -0 -0 -0 -0 -0 -0 -0 -0 0 0 0 0 0 0 0 0 0 0 0 0 0 0 0 0 0 0 0 0 0
0 0 0 0 0 0 0 0 0 0 0 0 0 0 0 0 0 0 -0 -0 -0 -0 -0 -0 -0 0 0 0 0 0 0 0 0 0 0 0 0 0 0 0 0 0 0 0
0 0 0 0 0 0 0 0 0 0 0 0 0 0 0 0 0 0 0 -0 -0 -0 -0 -0 -0 -0 0 0 0 0 0 0 0 0 0 0 0 0 0 0 0 0 0 0
0 0 0 0 0 0 0 0 0 0 0 0 0 0 0 0 0 0 0 0 -0 -0 -0 -0 -0 -0 0 -0 0 0 0 -0 -0 0 0 0 0 0 0 0 0 0 0 0
0 0 0 0 0 0 0 0 0 0 0 0 0 0 0 0 0 0 0 0 0 0 0 0 0 -0 -0 -0 -0 0 0 -0 -0 -0 -0 0 0 0 0 0 0 0 0 0
0 0 0 0 0 0 0 0 0 0 0 0 0 0 0 0 0 0 0 0 0 0 0 0 0 -0 -0 -0 -0 -0 -0 -0 -0 -0 -0 -0 -0 -0 -0 -0 0 0 0 0
0 0 0 0 0 0 0 0 0 0 0 0 0 0 0 0 0 0 0 0 0 0 0 0 0 0 0 -0 -0 -0 -0 -0 -0 -0 -0 -0 -0 -0 -0 -0 -0 0 0 0
0 0 0 0 0 0 0 0 0 0 0 0 0 0 0 0 0 0 0 0 0 0 0 0 0 0 0 0 0 -0 -0 -0 -0 -0 -0 -0 -0 -0 -0 -0 -0 -0 -0 0
Wind_Speed_500mb
15 10 12 30 21 32 39 41 52 66 41 29 45 45 58 32 38 46 61 65 70 75 97 101 95 80 72 69 67 88 98 101 106 112 111 111 111 104 103 103 104 106 100 97
13 8 40 37 35 36 38 48 62 59 37 27 56 52 61 54 46 40 56 68 70 81 92 94 91 88 95 96 97 93 93 103 109 114 115 113 112 107 101 99 99 100 101 100
10 17 40 32 28 50 43 33 48 53 53 39 41 50 51 50 43 57 60 69 77 73 92 99 95 96 102 101 96 94 102 96 102 111 111 109 100 103 102 103 99 102 103 97
10 31 36 31 23 41 36 20 51 52 40 38 3 39 44 41 38 31 36 53 64 63 45 51 66 66 69 76 75 80 90 97 98 104 119 119 118 115 112 106 101 101 101 97
29 24 35 35 30 38 26 41 44 53 42 42 55 27 39 31 52 31 22 44 21 25 30 31 24 21 19 30 56 69 83 93 96 109 118 117 116 114 107 105 104 100 98 98
35 23 14 22 41 29 35 42 48 25 21 32 41 27 39 45 44 46 19 27 33 36 37 39 38 32 30 26 18 41 67 79 89 101 112 113 114 114 110 103 97 97 101 104
12 14 28 15 41 49 44 42 13 9 11 27 19 16 37 24 28 20 16 39 47 54 57 54 54 54 48 46 38 12 34 54 76 97 106 110 115 115 115 110 101 93 98 108
18 15 29 37 38 19 28 16 10 14 15 21 29 14 8 30 38 53 53 46 56 65 65 62 57 53 51 49 45 35 12 18 48 75 92 102 107 108 106 102 97 92 91 97
11 10 36 17 31 10 23 16 26 12 33 15 11 2 22 39 37 38 45 55 59 60 65 67 59 56 53 49 46 41 28 6 27 52 70 84 92 97 96 92 88 85 84 85
8 18 10 34 14 20 15 23 15 11 12 16 17 17 24 44 35 35 39 47 55 58 67 69 63 60 53 46 40 36 35 30 8 24 43 55 67 76 80 80 81 80 77 77
6 7 19 18 12 16 13 18 9 10 10 9 16 7 24 30 31 33 33 49 52 55 61 68 64 59 54 49 41 37 36 35 25 10 15 29 38 51 60 67 71 72 71 72
6 7 10 26 23 17 17 16 11 9 11 18 15 10 32 28 26 31 32 37 44 52 56 61 65 66 64 60 53 46 38 35 34 28 9 15 31 41 50 58 60 63 64 67
6 4 10 15 10 4 5 20 26 26 20 22 13 12 31 27 25 33 34 36 40 43 54 65 66 68 69 69 63 55 46 40 33 28 22 14 11 21 36 44 49 53 56 60
9 3 14 11 23 20 13 26 35 13 11 22 28 44 31 27 26 33 43 39 37 40 43 52 64 67 70 75 76 71 60 49 39 29 24 19 13 8 3 19 36 47 52 52
9 10 10 20 29 32 31 27 23 26 29 11 29 31 21 19 19 28 31 37 36 41 45 49 52 59 63 72 76 74 72 66 56 47 35 28 21 15 9 3 14 27 37 47
2 9 4 27 29 30 34 34 20 18 15 16 24 14 18 24 14 22 32 33 36 37 38 44 48 52 56 59 67 72 75 75 70 66 62 49 32 21 15 10 6 8 24 38
7 6 4 12 15 23 13 15 11 10 13 6 7 9 12 18 12 14 18 28 32 31 34 38 42 47 51 51 52 58 64 66 70 71 71 67 60 50 33 21 12 3 6 19
10 9 4 9 10 8 15 9 12 21 16 12 13 14 11 21 19 13 12 15 21 31 33 37 39 40 45 46 48 52 54 56 57 62 66 69 70 66 59 44 29 18 11 9
34 9 4 2 6 17 23 12 13 13 17 13 11 14 24 26 17 31 14 15 20 22 26 32 35 38 42 42 41 43 49 53 55 59 62 63 62 62 65 62 56 44 30 18
18 4 7 6 4 12 14 10 17 9 21 15 19 15 14 10 4 8 18 24 22 24 26 24 26 30 33 37 40 41 42 43 47 49 51 52 55 60 58 55 56 56 45 36
2 4 16 12 11 18 25 26 4 9 15 23 27 28 23 9 18 33 40 35 29 26 28 29 27 27 30 36 40 45 45 44 45 48 47 42 41 42 46 47 52 48 43 44
16 11 8 6 4 19 16 8 14 17 12 27 35 40 38 41 37 38 40 37 35 34 33 31 32 33 35 34 36 39 45 50 51 50 49 47 43 40 38 38 38 39 47 50
9 17 9 21 16 15 33 31 42 31 54 60 56 54 49 42 42 34 37 39 40 37 35 36 35 35 36 39 40 43 42 49 54 58 59 55 50 45 43 42 40 35 35 37
11 18 12 3 16 32 65 66 68 72 65 79 70 64 51 49 44 36 34 36 37 38 40 40 39 40 42 44 50 53 53 53 56 60 63 67 66 60 53 49 45 42 40 37
17 8 9 24 37 51 60 71 67 53 51 52 52 50 53 47 47 40 36 35 36 35 36 40 44 47 51 54 57 60 65 69 72 71 68 67 67 69 69 65 59 54 46 42
35 40 15 21 39 35 41 54 58 52 52 54 57 58 57 47 41 40 41 40 37 38 41 44 47 51 57 61 64 66 68 73 78 81 78 77 78 75 73 77 78 67 60 53
Wind_Direction_500mb
323 36 355 337 324 308 303 289 282 275 281 291 277 270 271 275 259 266 265 268 270 270 270 274 277 276 273 266 263 252 247 243 238 233 229 229 233 235 234 234 234 233 231 231
11 25 354 340 345 331 307 289 277 288 292 254 270 264 271 268 267 255 266 274 271 272 277 280 278 276 275 270 264 258 251 244 241 239 238 236 236 236 240 237 232 233 232 233
341 345 337 343 6 353 324 299 300 286 289 275 293 285 269 270 267 267 270 273 278 274 279 279 276 276 279 276 271 261 254 248 244 240 234 229 229 231 231 232 231 231 232 234
358 329 326 327 4 348 316 332 313 301 302 267 201 273 269 280 279 287 278 279 282 289 293 282 277 280 273 266 264 264 258 250 246 238 231 232 233 231 233 234 234 231 230 231
320 313 330 354 339 332 296 299 295 286 276 274 252 260 279 276 278 271 286 292 328 8 14 13 5 357 318 280 258 250 250 250 244 236 232 232 233 236 237 233 231 233 230 230
317 319 12 300 339 312 308 309 292 252 236 246 253 233 261 270 269 271 229 74 39 26 18 17 13 13 10 3 316 242 234 241 240 235 232 232 234 233 231 231 230 231 231 230
356 306 9 323 328 329 355 350 331 319 248 249 206 210 254 274 352 331 30 44 36 30 21 14 12 9 10 12 13 349 234 229 234 231 231 232 233 233 235 234 235 232 231 229
344 339 9 321 329 308 324 336 316 300 301 303 292 210 57 40 36 47 50 43 34 26 19 15 11 8 8 11 14 22 26 219 223 231 234 232 230 231 232 234 236 238 240 238
331 266 322 332 329 346 321 355 290 269 257 254 235 279 51 20 27 33 32 33 28 22 15 13 10 9 7 10 15 19 31 59 213 220 232 235 234 234 235 237 240 243 244 243
276 297 308 331 319 14 43 348 352 332 317 321 313 59 9 359 16 22 25 23 19 17 16 13 11 10 9 7 9 21 32 39 55 217 225 236 241 240 241 243 244 244 246 246
212 178 302 322 345 25 1 355 1 290 306 324 331 71 34 34 20 15 16 13 13 13 14 14 14 14 15 15 15 19 27 36 50 85 207 223 237 249 251 249 249 249 250 249
234 241 298 307 301 143 4 312 326 336 314 293 255 258 36 44 28 18 14 11 11 8 11 17 22 22 23 21 21 22 24 31 42 53 90 206 223 233 237 247 252 250 250 249
285 297 319 330 328 9 265 325 317 308 271 266 280 276 4 14 6 8 3 5 5 12 7 17 24 28 31 29 30 31 29 28 31 40 57 85 174 220 231 237 242 251 252 250
8 145 171 225 263 291 283 297 300 276 265 278 263 295 335 346 356 359 359 358 3 7 16 11 18 26 30 33 32 33 36 37 34 30 37 46 60 74 178 230 237 240 245 249
143 233 197 242 264 278 276 274 277 291 295 242 307 303 356 358 360 355 352 353 0 6 7 12 13 17 25 33 35 37 39 40 41 40 36 33 31 38 53 155 226 233 234 241
204 264 166 285 260 276 291 291 260 272 321 326 324 347 359 326 354 359 352 353 1 4 4 8 13 17 19 24 31 33 37 40 42 44 44 40 33 23 23 34 60 212 224 229
229 196 60 264 328 315 325 219 212 243 251 240 308 274 320 339 329 342 348 349 351 356 359 9 14 18 20 20 24 28 30 33 38 41 41 42 42 39 29 13 5 354 226 229
190 134 128 269 2 341 237 210 191 236 266 228 260 276 277 299 266 278 340 343 345 349 358 6 9 12 20 21 23 25 25 26 29 32 34 35 36 37 38 34 25 6 336 283
200 135 277 206 197 292 293 259 185 172 263 218 221 262 279 310 289 274 269 330 334 339 350 355 358 1 5 9 13 21 23 25 22 25 24 23 23 27 30 32 33 31 18 359
172 62 159 78 184 245 234 248 217 96 278 209 208 246 255 307 321 263 299 317 319 326 334 338 343 345 346 356 4 8 11 14 23 23 22 20 16 15 18 18 23 28 29 30
85 326 211 224 235 274 248 241 99 97 241 198 212 263 248 208 245 286 297 299 305 312 320 324 327 330 337 342 351 353 352 354 360 3 6 8 11 11 12 10 7 8 15 23
184 173 202 87 150 276 203 146 196 215 211 274 282 282 257 270 275 280 284 284 290 299 305 311 318 323 328 332 335 336 337 337 339 342 345 346 350 355 358 358 2 3 0 360
251 194 192 188 213 227 199 221 229 253 293 293 284 288 279 264 262 270 270 275 281 285 291 297 303 308 315 319 323 321 323 323 324 326 328 330 332 335 338 339 340 347 356 355
259 193 230 73 238 246 262 262 270 282 284 289 285 284 273 263 263 268 270 271 274 281 288 292 297 299 303 309 312 314 315 316 315 314 315 318 320 320 322 323 326 332 336 338
214 177 209 254 272 272 266 266 275 282 283 286 290 284 269 262 260 270 275 273 271 274 277 284 291 295 298 301 304 308 311 313 312 310 309 307 307 310 312 313 316 320 320 320
218 239 223 253 252 251 271 283 288 282 281 286 288 282 268 255 262 272 279 279 278 279 282 286 290 292 296 299 301 301 303 305 305 304 303 303 303 303 303 305 306 305 305 304
Wind_Speed_850mb
15 10 12 30 21 32 39 41 52 66 41 29 45 45 58 32 38 46 61 65 70 75 97 101 95 80 72 69 67 88 98 101 106 112 111 111 111 104 103 103 104 106 100 97
13 8 40 37 35 36 38 48 62 59 37 27 56 52 61 54 46 40 56 68 70 81 92 94 91 88 95 96 97 93 93 103 109 114 115 113 112 107 101 99 99 100 101 100
10 17 40 32 28 50 43 33 48 53 53 39 41 50 51 50 43 57 60 69 77 73 92 99 95 96 102 101 96 94 102 96 102 111 111 109 100 103 102 103 99 102 103 97
10 31 36 31 23 41 36 20 51 52 40 38 3 39 44 41 38 31 36 53 64 63 45 51 66 66 69 76 75 80 90 97 98 104 119 119 118 115 112 106 101 101 101 97
29 24 35 35 30 38 26 41 44 53 42 42 55 27 39 31 52 31 22 44 21 25 30 31 24 21 19 30 56 69 83 93 96 109 118 117 116 114 107 105 104 100 98 98
35 23 14 22 41 29 35 42 48 25 21 32 41 27 39 45 44 46 19 27 33 36 37 39 38 32 30 26 18 41 67 79 89 101 112 113 114 114 110 103 97 97 101 104
12 14 28 15 41 49 44 42 13 9 11 27 19 16 37 24 28 20 16 39 47 54 57 54 54 54 48 46 38 12 34 54 76 97 106 110 115 115 115 110 101 93 98 108
18 15 29 37 38 19 28 16 10 14 15 21 29 14 8 30 38 53 53 46 56 65 65 62 57 53 51 49 45 35 12 18 48 75 92 102 107 108 106 102 97 92 91 97
11 10 36 17 31 10 23 16 26 12 33 15 11 2 22 39 37 38 45 55 59 60 65 67 59 56 53 49 46 41 28 6 27 52 70 84 92 97 96 92 88 85 84 85
8 18 10 34 14 20 15 23 15 11 12 16 17 17 24 44 35 35 39 47 55 58 67 69 63 60 53 46 40 36 35 30 8 24 43 55 67 76 80 80 81 80 77 77
6 7 19 18 12 16 13 18 9 10 10 9 16 7 24 30 31 33 33 49 52 55 61 68 64 59 54 49 41 37 36 35 25 10 15 29 38 51 60 67 71 72 71 72
6 7 10 26 23 17 17 16 11 9 11 18 15 10 32 28 26 31 32 37 44 52 56 61 65 66 64 60 53 46 38 35 34 28 9 15 31 41 50 58 60 63 64 67
6 4 10 15 10 4 5 20 26 26 20 22 13 12 31 27 25 33 34 36 40 43 54 65 66 68 69 69 63 55 46 40 33 28 22 14 11 21 36 44 49 53 56 60
9 3 14 11 23 20 13 26 35 13 11 22 28 44 31 27 26 33 43 39 37 40 43 52 64 67 70 75 76 71 60 49 39 29 24 19 13 8 3 19 36 47 52 52
9 10 10 20 29 32 31 27 23 26 29 11 29 31 21 19 19 28 31 37 36 41 45 49 52 59 63 72 76 74 72 66 56 47 35 28 21 15 9 3 14 27 37 47
2 9 4 27 29 30 34 34 20 18 15 16 24 14 18 24 14 22 32 33 36 37 38 44 48 52 56 59 67 72 75 75 70 66 62 49 32 21 15 10 6 8 24 38
7 6 4 12 15 23 13 15 11 10 13 6 7 9 12 18 12 14 18 28 32 31 34 38 42 47 51 51 52 58 64 66 70 71 71 67 60 50 33 21 12 3 6 19
10 9 4 9 10 8 15 9 12 21 16 12 13 14 11 21 19 13 12 15 21 31 33 37 39 40 45 46 48 52 54 56 57 62 66 69 70 66 59 44 29 18 11 9
34 9 4 2 6 17 23 12 13 13 17 13 11 14 24 26 17 31 14 15 20 22 26 32 35 38 42 42 41 43 49 53 55 59 62 63 62 62 65 62 56 44 30 18
18 4 7 6 4 12 14 10 17 9 21 15 19 15 14 10 4 8 18 24 22 24 26 24 26 30 33 37 40 41 42 43 47 49 51 52 55 60 58 55 56 56 45 36
2 4 16 12 11 18 25 26 4 9 15 23 27 28 23 9 18 33 40 35 29 26 28 29 27 27 30 36 40 45 45 44 45 48 47 42 41 42 46 47 52 48 43 44
16 11 8 6 4 19 16 8 14 17 12 27 35 40 38 41 37 38 40 37 35 34 33 31 32 33 35 34 36 39 45 50 51 50 49 47 43 40 38 38 38 39 47 50
9 17 9 21 16 15 33 31 42 31 54 60 56 54 49 42 42 34 37 39 40 37 35 36 35 35 36 39 40 43 42 49 54 58 59 55 50 45 43 42 40 35 35 37
11 18 12 3 16 32 65 66 68 72 65 79 70 64 51 49 44 36 34 36 37 38 40 40 39 40 42 44 50 53 53 53 56 60 63 67 66 60 53 49 45 42 40 37
17 8 9 24 37 51 60 71 67 53 51 52 52 50 53 47 47 40 36 35 36 35 36 40 44 47 51 54 57 60 65 69 72 71 68 67 67 69 69 65 59 54 46 42
35 40 15 21 39 35 41 54 58 52 52 54 57 58 57 47 41 40 41 40 37 38 41 44 47 51 57 61 64 66 68 73 78 81 78 77 78 75 73 77 78 67 60 53
Wind_Direction_850mb
323 36 355 337 324 308 303 289 282 275 281 291 277 270 271 275 259 266 265 268 270 270 270 274 277 276 273 266 263 252 247 243 238 233 229 229 233 235 234 234 234 233 231 231
11 25 354 340 345 331 307 289 277 288 292 254 270 264 271 268 267 255 266 274 271 272 277 280 278 276 275 270 264 258 251 244 241 239 238 236 236 236 240 237 232 233 232 233
341 345 337 343 6 353 324 299 300 286 289 275 293 285 269 270 267 267 270 273 278 274 279 279 276 276 279 276 271 261 254 248 244 240 234 229 229 231 231 232 231 231 232 234
358 329 326 327 4 348 316 332 313 301 302 267 201 273 269 280 279 287 278 279 282 289 293 282 277 280 273 266 264 264 258 250 246 238 231 232 233 231 233 234 234 231 230 231
320 313 330 354 339 332 296 299 295 286 276 274 252 260 279 276 278 271 286 292 328 8 14 13 5 357 318 280 258 250 250 250 244 236 232 232 233 236 237 233 231 233 230 230
317 319 12 300 339 312 308 309 292 252 236 246 253 233 261 270 269 271 229 74 39 26 18 17 13 13 10 3 316 242 234 241 240 235 232 232 234 233 231 231 230 231 231 230
356 306 9 323 328 329 355 350 331 319 248 249 206 210 254 274 352 331 30 44 36 30 21 14 12 9 10 12 13 349 234 229 234 231 231 232 233 233 235 234 235 232 231 229
344 339 9 321 329 308 324 336 316 300 301 303 292 210 57 40 36 47 50 43 34 26 19 15 11 8 8 11 14 22 26 219 223 231 234 232 230 231 232 234 236 238 240 238
331 266 322 332 329 346 321 355 290 269 257 254 235 279 51 20 27 33 32 33 28 22 15 13 10 9 7 10 15 19 31 59 213 220 232 235 234 234 235 237 240 243 244 243
276 297 308 331 319 14 43 348 352 332 317 321 313 59 9 359 16 22 25 23 19 17 16 13 11 10 9 7 9 21 32 39 55 217 225 236 241 240 241 243 244 244 246 246
212 178 302 322 345 25 1 355 1 290 306 324 331 71 34 34 20 15 16 13 13 13 14 14 14 14 15 15 15 19 27 36 50 85 207 223 237 249 251 249 249 249 250 249
234 241 298 307 301 143 4 312 326 336 314 293 255 258 36 44 28 18 14 11 11 8 11 17 22 22 23 21 21 22 24 31 42 53 90 206 223 233 237 247 252 250 250 249
285 297 319 330 328 9 265 325 317 308 271 266 280 276 4 14 6 8 3 5 5 12 7 17 24 28 31 29 30 31 29 28 31 40 57 85 174 220 231 237 242 251 252 250
8 145 171 225 263 291 283 297 300 276 265 278 263 295 335 346 356 359 359 358 3 7 16 11 18 26 30 33 32 33 36 37 34 30 37 46 60 74 178 230 237 240 245 249
143 233 197 242 264 278 276 274 277 291 295 242 307 303 356 358 360 355 352 353 0 6 7 12 13 17 25 33 35 37 39 40 41 40 36 33 31 38 53 155 226 233 234 241
204 264 166 285 260 276 291 291 260 272 321 326 324 347 359 326 354 359 352 353 1 4 4 8 13 17 19 24 31 33 37 40 42 44 44 40 33 23 23 34 60 212 224 229
229 196 60 264 328 315 325 219 212 243 251 240 308 274 320 339 329 342 348 349 351 356 359 9 14 18 20 20 24 28 30 33 38 41 41 42 42 39 29 13 5 354 226 229
190 134 128 269 2 341 237 210 191 236 266 228 260 276 277 299 266 278 340 343 345 349 358 6 9 12 20 21 23 25 25 26 29 32 34 35 36 37 38 34 25 6 336 283
200 135 277 206 197 292 293 259 185 172 263 218 221 262 279 310 289 274 269 330 334 339 350 355 358 1 5 9 13 21 23 25 22 25 24 23 23 27 30 32 33 31 18 359
172 62 159 78 184 245 234 248 217 96 278 209 208 246 255 307 321 263 299 317 319 326 334 338 343 345 346 356 4 8 11 14 23 23 22 20 16 15 18 18 23 28 29 30
85 326 211 224 235 274 248 241 99 97 241 198 212 263 248 208 245 286 297 299 305 312 320 324 327 330 337 342 351 353 352 354 360 3 6 8 11 11 12 10 7 8 15 23
184 173 202 87 150 276 203 146 196 215 211 274 282 282 257 270 275 280 284 284 290 299 305 311 318 323 328 332 335 336 337 337 339 342 345 346 350 355 358 358 2 3 0 360
251 194 192 188 213 227 199 221 229 253 293 293 284 288 279 264 262 270 270 275 281 285 291 297 303 308 315 319 323 321 323 323 324 326 328 330 332 335 338 339 340 347 356 355
259 193 230 73 238 246 262 262 270 282 284 289 285 284 273 263 263 268 270 271 274 281 288 292 297 299 303 309 312 314 315 316 315 314 315 318 320 320 322 323 326 332 336 338
214 177 209 254 272 272 266 266 275 282 283 286 290 284 269 262 260 270 275 273 271 274 277 284 291 295 298 301 304 308 311 313 312 310 309 307 307 310 312 313 316 320 320 320
218 239 223 253 252 251 271 283 288 282 281 286 288 282 268 255 262 272 279 279 278 279 282 286 290 292 296 299 301 301 303 305 305 304 303 303 303 303 303 305 306 305 305 304